SBI7520 UTAA-LTFG

Flight info

Callsign SBI7520
Flight time N/A
Altitude 36000
Route UTAA N0440F360 MAM29D MAMED B449 DUKAN N449 INDUR UN161 ERZ UL615 SIV UA285 MUT UT339 ELROP ELRO1D ROKDU BEPTO EVBUM MA08 RW08 LTFG
Aircraft B738/M-SDGIWZ/S

Departure

Time 2026-04-29 22:09
Airport Ashgabat International Airport (UTAA)

Arrival

Time N/A
Airport Gazipaşa-Alanya Airport (LTFG)
Time Latitude Longitude Altitude Speed Heading
2026-04-29 21:18 37.96722 58.37336 699 ft 0 kts 128°
2026-04-29 22:06 37.96724 58.37332 699 ft 1 kts 128°
2026-04-29 22:06 37.96739 58.37309 699 ft 4 kts 128°
2026-04-29 22:06 37.96764 58.37295 699 ft 3 kts 219°
2026-04-29 22:06 37.96765 58.37293 699 ft 5 kts 241°
2026-04-29 22:07 37.96714 58.37235 699 ft 14 kts 175°
2026-04-29 22:07 37.96639 58.37331 699 ft 16 kts 127°
2026-04-29 22:07 37.96671 58.37450 699 ft 21 kts 41°
2026-04-29 22:07 37.96831 58.37521 699 ft 30 kts 342°
2026-04-29 22:08 37.97028 58.37438 699 ft 30 kts 340°
2026-04-29 22:08 37.97202 58.37304 699 ft 27 kts 341°
2026-04-29 22:08 37.97356 58.37249 699 ft 32 kts 303°
2026-04-29 22:08 37.97606 58.36694 699 ft 108 kts 299°
2026-04-29 22:09 37.98081 58.35636 705 ft 166 kts 299°
2026-04-29 22:09 37.98705 58.34254 978 ft 191 kts 300°
2026-04-29 22:09 37.99423 58.32704 1304 ft 220 kts 298°
2026-04-29 22:09 38.00124 58.31043 2334 ft 214 kts 298°
2026-04-29 22:10 38.00854 58.29346 2876 ft 226 kts 298°
2026-04-29 22:10 38.01625 58.27581 3531 ft 231 kts 298°
2026-04-29 22:10 38.02496 58.25888 4178 ft 236 kts 308°
2026-04-29 22:10 38.03735 58.24480 4807 ft 246 kts 327°
2026-04-29 22:11 38.05189 58.23351 5545 ft 253 kts 324°
2026-04-29 22:11 38.06654 58.21994 6168 ft 264 kts 321°
2026-04-29 22:11 38.08088 58.20588 6923 ft 268 kts 320°
2026-04-29 22:11 38.09562 58.19126 7650 ft 274 kts 320°
2026-04-29 22:12 38.11075 58.17609 8405 ft 277 kts 319°
2026-04-29 22:12 38.12587 58.16086 9125 ft 281 kts 319°
2026-04-29 22:12 38.14114 58.14546 9827 ft 284 kts 319°
2026-04-29 22:12 38.15660 58.12984 10381 ft 293 kts 319°
2026-04-29 22:13 38.17327 58.11297 10460 ft 319 kts 319°
2026-04-29 22:13 38.19114 58.09498 10718 ft 336 kts 319°
2026-04-29 22:13 38.20973 58.07629 11169 ft 345 kts 319°
2026-04-29 22:13 38.22860 58.05731 11686 ft 352 kts 319°
2026-04-29 22:14 38.24780 58.03795 12296 ft 355 kts 319°
2026-04-29 22:14 38.26716 58.01841 12916 ft 357 kts 319°
2026-04-29 22:14 38.28660 57.99878 13485 ft 360 kts 319°
2026-04-29 22:14 38.30600 57.97918 14047 ft 362 kts 319°
2026-04-29 22:15 38.32578 57.95921 14588 ft 365 kts 319°
2026-04-29 22:15 38.34568 57.93908 15122 ft 367 kts 319°
2026-04-29 22:15 38.36565 57.91887 15629 ft 370 kts 319°
2026-04-29 22:15 38.38573 57.89858 16127 ft 372 kts 319°
2026-04-29 22:16 38.40590 57.87821 16608 ft 374 kts 319°
2026-04-29 22:16 38.42638 57.85753 17070 ft 377 kts 319°
2026-04-29 22:16 38.44705 57.83665 17540 ft 378 kts 319°
2026-04-29 22:16 38.46754 57.81598 17972 ft 381 kts 319°
2026-04-29 22:17 38.48827 57.79505 18402 ft 383 kts 319°
2026-04-29 22:17 38.50910 57.77404 18812 ft 385 kts 319°
2026-04-29 22:17 38.53028 57.75266 19225 ft 387 kts 319°
2026-04-29 22:17 38.55123 57.73159 19612 ft 389 kts 319°
2026-04-29 22:18 38.57244 57.71029 19996 ft 390 kts 319°
2026-04-29 22:18 38.59359 57.68864 20349 ft 392 kts 315°
2026-04-29 22:18 38.61126 57.66218 20653 ft 389 kts 299°
2026-04-29 22:18 38.62426 57.63253 21165 ft 385 kts 295°
2026-04-29 22:19 38.63518 57.60079 21325 ft 390 kts 289°
2026-04-29 22:19 38.64424 57.56848 21816 ft 387 kts 288°
2026-04-29 22:19 38.65359 57.53609 21972 ft 393 kts 289°
2026-04-29 22:19 38.66322 57.50333 22399 ft 392 kts 289°
2026-04-29 22:20 38.67268 57.47065 22659 ft 395 kts 289°
2026-04-29 22:20 38.68212 57.43774 22947 ft 396 kts 289°
2026-04-29 22:20 38.69165 57.40448 23270 ft 397 kts 289°
2026-04-29 22:20 38.70103 57.37167 23567 ft 398 kts 289°
2026-04-29 22:21 38.71048 57.33852 23831 ft 399 kts 288°
2026-04-29 22:21 38.72002 57.30497 24125 ft 400 kts 288°
2026-04-29 22:21 38.72947 57.27168 24380 ft 402 kts 288°
2026-04-29 22:21 38.73909 57.23775 24658 ft 403 kts 288°
2026-04-29 22:22 38.74860 57.20412 24892 ft 404 kts 288°
2026-04-29 22:22 38.75820 57.17016 25142 ft 406 kts 288°
2026-04-29 22:22 38.76766 57.13663 25391 ft 406 kts 288°
2026-04-29 22:22 38.77736 57.10223 25620 ft 408 kts 288°
2026-04-29 22:23 38.78693 57.06823 25879 ft 408 kts 288°
2026-04-29 22:23 38.79658 57.03386 26119 ft 409 kts 288°
2026-04-29 22:23 38.80611 56.99990 26345 ft 409 kts 288°
2026-04-29 22:23 38.81567 56.96579 26580 ft 410 kts 288°
2026-04-29 22:24 38.82537 56.93115 26798 ft 410 kts 288°
2026-04-29 22:24 38.83501 56.89665 27013 ft 411 kts 288°
2026-04-29 22:24 38.84448 56.86268 27216 ft 412 kts 288°
2026-04-29 22:24 38.85411 56.82806 27386 ft 413 kts 288°
2026-04-29 22:25 38.86379 56.79330 27572 ft 413 kts 288°
2026-04-29 22:25 38.87349 56.75860 27766 ft 414 kts 288°
2026-04-29 22:25 38.88317 56.72389 27889 ft 416 kts 288°
2026-04-29 22:25 38.89288 56.68880 28053 ft 417 kts 288°
2026-04-29 22:26 38.90243 56.65413 28234 ft 417 kts 288°
2026-04-29 22:26 38.91213 56.61889 28391 ft 418 kts 288°
2026-04-29 22:26 38.92187 56.58379 28583 ft 417 kts 288°
2026-04-29 22:27 38.94139 56.51354 28837 ft 420 kts 288°
2026-04-29 22:27 38.95105 56.47838 28989 ft 420 kts 287°
2026-04-29 22:27 38.96083 56.44261 29121 ft 421 kts 287°
2026-04-29 22:27 38.97046 56.40733 29308 ft 420 kts 287°
2026-04-29 22:28 38.98008 56.37207 29395 ft 422 kts 288°
2026-04-29 22:28 38.98971 56.33677 29531 ft 422 kts 287°
2026-04-29 22:28 38.99950 56.30102 29645 ft 423 kts 287°
2026-04-29 22:28 39.00862 56.26503 29762 ft 423 kts 284°
2026-04-29 22:29 39.01660 56.22914 30019 ft 420 kts 283°
2026-04-29 22:29 39.02451 56.19334 30268 ft 418 kts 284°
2026-04-29 22:29 39.03260 56.15768 30491 ft 416 kts 284°
2026-04-29 22:29 39.04090 56.12190 30718 ft 414 kts 284°
2026-04-29 22:30 39.04904 56.08656 30916 ft 412 kts 284°
2026-04-29 22:30 39.06506 56.01609 31090 ft 415 kts 284°
2026-04-29 22:31 39.08111 55.94463 31295 ft 416 kts 284°
2026-04-29 22:31 39.08909 55.90912 31432 ft 415 kts 284°
2026-04-29 22:31 39.09718 55.87357 31536 ft 416 kts 284°
2026-04-29 22:32 39.11360 55.80189 31741 ft 416 kts 284°
2026-04-29 22:32 39.12961 55.73080 31957 ft 416 kts 284°
2026-04-29 22:32 39.13757 55.69477 32146 ft 414 kts 284°
2026-04-29 22:33 39.14532 55.65984 32408 ft 410 kts 284°
2026-04-29 22:33 39.15314 55.62479 32636 ft 407 kts 284°
2026-04-29 22:33 39.16098 55.58963 32718 ft 407 kts 284°
2026-04-29 22:33 39.16877 55.55450 32823 ft 407 kts 284°
2026-04-29 22:34 39.17652 55.51941 32935 ft 407 kts 284°
2026-04-29 22:34 39.19210 55.44983 33109 ft 407 kts 284°
2026-04-29 22:34 39.20003 55.41471 33217 ft 407 kts 284°
2026-04-29 22:35 39.20789 55.37961 33308 ft 407 kts 284°
2026-04-29 22:35 39.21562 55.34478 33414 ft 407 kts 284°
2026-04-29 22:35 39.22336 55.30996 33511 ft 407 kts 284°
2026-04-29 22:36 39.23894 55.23960 33686 ft 407 kts 283°
2026-04-29 22:36 39.24653 55.20497 33813 ft 406 kts 283°
2026-04-29 22:36 39.25415 55.17005 33926 ft 405 kts 284°
2026-04-29 22:37 39.26946 55.10013 34122 ft 405 kts 284°
2026-04-29 22:37 39.28474 55.03027 34297 ft 405 kts 283°
2026-04-29 22:38 39.30003 54.96037 34458 ft 405 kts 283°
2026-04-29 22:38 39.31490 54.89048 34660 ft 403 kts 283°
2026-04-29 22:39 39.32957 54.82109 34820 ft 403 kts 283°
2026-04-29 22:39 39.34443 54.75146 34975 ft 403 kts 283°
2026-04-29 22:40 39.35921 54.68200 35137 ft 402 kts 283°
2026-04-29 22:40 39.37407 54.61248 35288 ft 402 kts 283°
2026-04-29 22:41 39.38923 54.54288 35448 ft 401 kts 284°
2026-04-29 22:41 39.40406 54.47415 35597 ft 400 kts 283°
2026-04-29 22:42 39.41875 54.40483 35767 ft 399 kts 283°
2026-04-29 22:42 39.43297 54.33604 35919 ft 397 kts 282°
2026-04-29 22:43 39.44734 54.26685 36070 ft 397 kts 282°
2026-04-29 22:43 39.46181 54.19772 36075 ft 400 kts 283°
2026-04-29 22:44 39.47619 54.12853 36073 ft 400 kts 283°
2026-04-29 22:44 39.49061 54.05919 36073 ft 399 kts 283°
2026-04-29 22:45 39.50504 53.99007 36074 ft 400 kts 283°
2026-04-29 22:45 39.51958 53.92081 36073 ft 399 kts 283°
2026-04-29 22:46 39.53373 53.85159 36074 ft 398 kts 283°
2026-04-29 22:46 39.54805 53.78221 36074 ft 399 kts 283°
2026-04-29 22:47 39.56184 53.71287 36073 ft 400 kts 282°
2026-04-29 22:47 39.57571 53.64303 36074 ft 398 kts 282°
2026-04-29 22:48 39.58979 53.57364 36074 ft 400 kts 283°
2026-04-29 22:48 39.60392 53.50380 36074 ft 400 kts 283°
2026-04-29 22:49 39.61756 53.43443 36073 ft 399 kts 282°
2026-04-29 22:49 39.63112 53.36459 36073 ft 400 kts 282°
2026-04-29 22:50 39.64498 53.29516 36073 ft 398 kts 283°
2026-04-29 22:50 39.65889 53.22599 36073 ft 399 kts 282°
2026-04-29 22:51 39.67236 53.15639 36073 ft 399 kts 282°
2026-04-29 22:51 39.69265 53.05195 36075 ft 400 kts 282°
2026-04-29 22:52 39.70634 52.98188 36072 ft 400 kts 282°
2026-04-29 22:52 39.72026 52.91187 36075 ft 401 kts 282°
2026-04-29 22:53 39.73396 52.84166 36074 ft 403 kts 282°
2026-04-29 22:53 39.74777 52.77118 36072 ft 403 kts 282°
2026-04-29 22:54 39.76185 52.70086 36074 ft 404 kts 282°
2026-04-29 22:54 39.77590 52.63021 36074 ft 403 kts 282°
2026-04-29 22:55 39.78970 52.55998 36074 ft 404 kts 282°
2026-04-29 22:55 39.80326 52.48929 36074 ft 403 kts 282°
2026-04-29 22:56 39.81688 52.41867 36075 ft 404 kts 282°
2026-04-29 22:56 39.83078 52.34793 36074 ft 404 kts 282°
2026-04-29 22:57 39.84450 52.27730 36073 ft 403 kts 282°
2026-04-29 22:57 39.85810 52.20695 36075 ft 403 kts 282°
2026-04-29 22:58 39.87164 52.13650 36073 ft 404 kts 282°
2026-04-29 22:58 39.88520 52.06562 36074 ft 403 kts 282°
2026-04-29 22:59 39.89865 51.99518 36073 ft 404 kts 282°
2026-04-29 22:59 39.91215 51.92446 36073 ft 402 kts 282°
2026-04-29 23:00 39.92552 51.85383 36073 ft 403 kts 282°
2026-04-29 23:00 39.93893 51.78296 36072 ft 404 kts 282°
2026-04-29 23:01 39.95229 51.71220 36074 ft 402 kts 282°
2026-04-29 23:01 39.96532 51.64186 36073 ft 403 kts 281°
2026-04-29 23:02 39.97827 51.57066 36075 ft 403 kts 281°
2026-04-29 23:02 39.99118 51.49983 36084 ft 402 kts 281°
2026-04-29 23:03 39.99949 51.42804 36092 ft 402 kts 276°
2026-04-29 23:03 40.00683 51.35609 36100 ft 402 kts 277°
2026-04-29 23:04 40.01489 51.28416 36102 ft 402 kts 276°
2026-04-29 23:04 40.02280 51.21218 36101 ft 402 kts 276°
2026-04-29 23:05 40.03059 51.13975 36099 ft 402 kts 276°
2026-04-29 23:05 40.03814 51.06799 36101 ft 400 kts 276°
2026-04-29 23:06 40.04548 50.99673 36102 ft 397 kts 276°
2026-04-29 23:06 40.05295 50.92551 36099 ft 395 kts 277°
2026-04-29 23:07 40.06034 50.85484 36099 ft 392 kts 276°
2026-04-29 23:07 40.06741 50.78486 36102 ft 392 kts 276°
2026-04-29 23:08 40.07443 50.71412 36101 ft 393 kts 277°
2026-04-29 23:08 40.08157 50.64354 36100 ft 393 kts 276°
2026-04-29 23:09 40.08868 50.57307 36100 ft 391 kts 276°
2026-04-29 23:09 40.09562 50.50288 36101 ft 391 kts 277°
2026-04-29 23:10 40.10276 50.43219 36100 ft 393 kts 276°
2026-04-29 23:10 40.10978 50.36169 36098 ft 392 kts 277°
2026-04-29 23:11 40.11664 50.29114 36101 ft 393 kts 276°
2026-04-29 23:11 40.12381 50.22036 36101 ft 392 kts 276°
2026-04-29 23:12 40.13074 50.15005 36103 ft 393 kts 276°
2026-04-29 23:12 40.13764 50.07960 36099 ft 392 kts 276°
2026-04-29 23:13 40.14392 50.00878 36102 ft 391 kts 275°
2026-04-29 23:13 40.14953 49.93846 36102 ft 392 kts 275°
2026-04-29 23:14 40.15615 49.86770 36099 ft 392 kts 277°
2026-04-29 23:14 40.16353 49.79691 36102 ft 393 kts 276°
2026-04-29 23:15 40.17053 49.72631 36098 ft 393 kts 276°
2026-04-29 23:15 40.17727 49.65543 36102 ft 393 kts 276°
2026-04-29 23:16 40.18348 49.58501 36101 ft 391 kts 275°
2026-04-29 23:16 40.18958 49.51452 36101 ft 393 kts 274°
2026-04-29 23:17 40.18976 49.44334 36100 ft 390 kts 268°
2026-04-29 23:17 40.18848 49.37269 36102 ft 392 kts 269°
2026-04-29 23:18 40.18753 49.30138 36099 ft 392 kts 269°
2026-04-29 23:18 40.18728 49.23037 36099 ft 389 kts 270°
2026-04-29 23:19 40.18799 49.15988 36101 ft 390 kts 270°
2026-04-29 23:19 40.18830 49.08901 36100 ft 391 kts 270°
2026-04-29 23:20 40.18834 49.01839 36100 ft 386 kts 270°
2026-04-29 23:20 40.18811 48.94850 36102 ft 384 kts 270°
2026-04-29 23:21 40.18778 48.87899 36103 ft 387 kts 270°
2026-04-29 23:21 40.18759 48.80853 36101 ft 386 kts 270°
2026-04-29 23:22 40.18740 48.73859 36101 ft 386 kts 270°
2026-04-29 23:22 40.18651 48.66861 36101 ft 387 kts 269°
2026-04-29 23:23 40.18530 48.59846 36101 ft 385 kts 269°
2026-04-29 23:23 40.18444 48.52870 36101 ft 384 kts 269°
2026-04-29 23:24 40.18342 48.45903 36102 ft 385 kts 270°
2026-04-29 23:24 40.18271 48.38887 36102 ft 386 kts 270°
2026-04-29 23:25 40.18202 48.31912 36101 ft 385 kts 269°
2026-04-29 23:25 40.18196 48.24915 36099 ft 384 kts 270°
2026-04-29 23:26 40.18140 48.17968 36101 ft 386 kts 269°
2026-04-29 23:26 40.18019 48.10941 36099 ft 386 kts 270°
2026-04-29 23:27 40.17972 48.03928 36102 ft 387 kts 270°
2026-04-29 23:27 40.17870 47.96924 36100 ft 385 kts 269°
2026-04-29 23:28 40.17704 47.89940 36102 ft 386 kts 269°
2026-04-29 23:28 40.17588 47.82982 36101 ft 385 kts 270°
2026-04-29 23:29 40.17468 47.75967 36103 ft 384 kts 270°
2026-04-29 23:29 40.17350 47.69006 36102 ft 386 kts 269°
2026-04-29 23:30 40.17236 47.62019 36101 ft 385 kts 270°
2026-04-29 23:30 40.17104 47.55057 36103 ft 385 kts 269°
2026-04-29 23:31 40.17029 47.48065 36103 ft 387 kts 270°
2026-04-29 23:31 40.16990 47.41042 36099 ft 385 kts 270°
2026-04-29 23:32 40.16899 47.34087 36100 ft 384 kts 269°
2026-04-29 23:32 40.16781 47.27095 36102 ft 387 kts 269°
2026-04-29 23:33 40.16642 47.20082 36101 ft 386 kts 268°
2026-04-29 23:33 40.16404 47.13089 36101 ft 385 kts 268°
2026-04-29 23:34 40.16206 47.06123 36101 ft 387 kts 269°
2026-04-29 23:34 40.16034 46.99092 36100 ft 385 kts 268°
2026-04-29 23:35 40.15868 46.92135 36102 ft 386 kts 269°
2026-04-29 23:35 40.15720 46.85077 36100 ft 388 kts 268°
2026-04-29 23:36 40.15570 46.78100 36100 ft 386 kts 268°
2026-04-29 23:36 40.15411 46.71120 36101 ft 386 kts 268°
2026-04-29 23:37 40.15244 46.64120 36100 ft 387 kts 268°
2026-04-29 23:37 40.15070 46.57113 36101 ft 388 kts 268°
2026-04-29 23:38 40.14882 46.50083 36101 ft 386 kts 268°
2026-04-29 23:38 40.14705 46.43077 36101 ft 386 kts 268°
2026-04-29 23:39 40.14525 46.36094 36101 ft 386 kts 268°
2026-04-29 23:39 40.14339 46.29063 36100 ft 388 kts 267°
2026-04-29 23:40 40.14148 46.22053 36102 ft 387 kts 267°
2026-04-29 23:40 40.13939 46.15087 36100 ft 385 kts 267°
2026-04-29 23:41 40.13742 46.08065 36102 ft 386 kts 268°
2026-04-29 23:41 40.13525 46.01102 36128 ft 386 kts 267°
2026-04-29 23:42 40.13324 45.94105 36126 ft 385 kts 269°
2026-04-29 23:42 40.13402 45.87128 36129 ft 386 kts 270°
2026-04-29 23:43 40.13428 45.80106 36126 ft 388 kts 269°
2026-04-29 23:43 40.13404 45.73038 36121 ft 387 kts 269°
2026-04-29 23:44 40.13389 45.66078 36118 ft 386 kts 269°
2026-04-29 23:44 40.13361 45.59071 36114 ft 387 kts 269°
2026-04-29 23:45 40.13346 45.52053 36095 ft 386 kts 269°
2026-04-29 23:45 40.13327 45.45036 36075 ft 386 kts 269°
2026-04-29 23:46 40.13353 45.38059 36055 ft 386 kts 270°
2026-04-29 23:46 40.13385 45.31018 36047 ft 387 kts 269°
2026-04-29 23:47 40.13387 45.24052 36048 ft 386 kts 269°
2026-04-29 23:47 40.13365 45.17011 36047 ft 387 kts 269°
2026-04-29 23:48 40.13340 45.09998 36047 ft 386 kts 269°
2026-04-29 23:48 40.13300 45.03045 36047 ft 385 kts 268°
2026-04-29 23:49 40.13274 44.96063 36048 ft 386 kts 268°
2026-04-29 23:49 40.13246 44.89048 36046 ft 384 kts 267°
2026-04-29 23:50 40.13203 44.82102 36046 ft 382 kts 267°
2026-04-29 23:51 40.13085 44.71691 36046 ft 383 kts 267°
2026-04-29 23:51 40.12935 44.64778 36047 ft 384 kts 266°
2026-04-29 23:52 40.12777 44.57820 36049 ft 386 kts 267°
2026-04-29 23:52 40.12645 44.50842 36044 ft 384 kts 267°
2026-04-29 23:53 40.12575 44.43887 36049 ft 382 kts 268°
2026-04-29 23:53 40.12520 44.36927 36047 ft 384 kts 268°
2026-04-29 23:54 40.12441 44.29970 36048 ft 385 kts 266°
2026-04-29 23:54 40.12336 44.22989 36043 ft 386 kts 267°
2026-04-29 23:55 40.12248 44.16028 36048 ft 383 kts 268°
2026-04-29 23:55 40.12167 44.09047 36055 ft 385 kts 267°
2026-04-29 23:56 40.12094 44.02102 36062 ft 384 kts 268°
2026-04-29 23:56 40.12060 43.95133 36071 ft 385 kts 268°
2026-04-29 23:57 40.12007 43.88134 36077 ft 385 kts 267°
2026-04-29 23:57 40.11913 43.81181 36074 ft 386 kts 267°
2026-04-29 23:58 40.11795 43.74175 36074 ft 385 kts 266°
2026-04-29 23:58 40.11585 43.67238 36077 ft 382 kts 266°
2026-04-29 23:59 40.11309 43.60306 36073 ft 383 kts 265°
2026-04-29 23:59 40.10906 43.53392 36074 ft 382 kts 264°
2026-04-30 00:00 40.10479 43.46492 36075 ft 384 kts 264°
2026-04-30 00:00 40.10149 43.39568 36082 ft 385 kts 266°
2026-04-30 00:01 40.09808 43.32581 36098 ft 385 kts 264°
2026-04-30 00:01 40.09357 43.25653 36113 ft 382 kts 264°
2026-04-30 00:02 40.08902 43.18748 36127 ft 382 kts 264°
2026-04-30 00:02 40.08481 43.11833 36125 ft 386 kts 263°
2026-04-30 00:03 40.08066 43.04842 36126 ft 390 kts 263°
2026-04-30 00:03 40.07705 42.97776 36124 ft 391 kts 264°
2026-04-30 00:04 40.07358 42.90678 36129 ft 393 kts 263°
2026-04-30 00:04 40.06962 42.83597 36125 ft 392 kts 263°
2026-04-30 00:05 40.06564 42.76499 36129 ft 393 kts 263°
2026-04-30 00:05 40.06130 42.69385 36127 ft 391 kts 263°